Time,TemperatureF,DewpointF,PressureIn,WindDirection,WindDirectionDegrees,WindSpeedMPH,WindSpeedGustMPH,Humidity,HourlyPrecipIn,Conditions,Clouds,dailyrainin,SolarRadiationWatts/m^2,SoftwareType,DateUTC
2013-01-14 00:22:00,41.0,32.0,-100.00,ESE,110,15.0,32.0,69,0.01,,,0.79,0.000000,,2013-01-14 09:22:00,
2013-01-14 00:33:00,41.0,32.0,-100.00,ESE,110,15.0,32.0,69,0.01,,,0.79,0.000000,,2013-01-14 09:33:00,
2013-01-14 00:42:00,41.0,32.0,-100.00,ESE,110,15.0,32.0,69,0.01,,,0.79,0.000000,,2013-01-14 09:42:00,
2013-01-14 00:52:00,41.0,32.0,-100.00,ESE,110,15.0,32.0,69,0.01,,,0.79,0.000000,,2013-01-14 09:52:00,
2013-01-14 01:22:00,42.0,31.0,-100.00,ESE,105,18.0,37.0,64,0.01,,,0.74,0.000000,,2013-01-14 10:22:00,
2013-01-14 01:32:00,42.0,31.0,-100.00,ESE,105,18.0,37.0,64,0.01,,,0.74,0.000000,,2013-01-14 10:32:00,
2013-01-14 01:42:00,42.0,31.0,-100.00,ESE,105,18.0,37.0,64,0.01,,,0.74,0.000000,,2013-01-14 10:42:00,
2013-01-14 01:52:00,42.0,31.0,-100.00,ESE,105,18.0,37.0,64,0.01,,,0.74,0.000000,,2013-01-14 10:52:00,
2013-01-14 02:22:00,42.0,32.0,-100.00,SE,127,18.0,41.0,68,0.03,,,0.65,0.000000,,2013-01-14 11:22:00,
2013-01-14 02:32:00,42.0,32.0,-100.00,SE,127,18.0,41.0,68,0.03,,,0.65,0.000000,,2013-01-14 11:32:00,
2013-01-14 02:42:00,42.0,32.0,-100.00,SE,127,18.0,41.0,68,0.03,,,0.65,0.000000,,2013-01-14 11:42:00,
2013-01-14 02:53:00,42.0,32.0,-100.00,SE,127,18.0,41.0,68,0.03,,,0.65,0.000000,,2013-01-14 11:53:00,
2013-01-14 03:22:00,40.0,31.0,-100.00,ESE,116,20.0,40.0,71,0.05,,,0.64,0.000000,,2013-01-14 12:22:00,
2013-01-14 03:33:00,40.0,31.0,-100.00,ESE,116,20.0,40.0,71,0.05,,,0.64,0.000000,,2013-01-14 12:33:00,
2013-01-14 03:42:00,40.0,31.0,-100.00,ESE,116,20.0,40.0,71,0.05,,,0.64,0.000000,,2013-01-14 12:42:00,
2013-01-14 03:52:00,40.0,31.0,-100.00,ESE,116,20.0,40.0,71,0.05,,,0.64,0.000000,,2013-01-14 12:52:00,
2013-01-14 04:22:00,39.0,32.0,-100.00,East,96,22.0,43.0,76,0.11,,,0.74,0.000000,,2013-01-14 13:22:00,
2013-01-14 04:33:00,39.0,32.0,-100.00,East,96,22.0,43.0,76,0.11,,,0.74,0.000000,,2013-01-14 13:33:00,
2013-01-14 04:43:00,39.0,32.0,-100.00,East,96,22.0,43.0,76,0.11,,,0.74,0.000000,,2013-01-14 13:43:00,
2013-01-14 04:52:00,39.0,32.0,-100.00,East,96,22.0,43.0,76,0.11,,,0.74,0.000000,,2013-01-14 13:52:00,
2013-01-14 05:22:00,40.0,33.0,-100.00,ESE,122,15.0,40.0,75,0.11,,,0.85,0.000000,,2013-01-14 14:22:00,
2013-01-14 05:33:00,40.0,33.0,-100.00,ESE,122,15.0,40.0,75,0.11,,,0.85,0.000000,,2013-01-14 14:33:00,
2013-01-14 05:42:00,40.0,33.0,-100.00,ESE,122,15.0,40.0,75,0.11,,,0.85,0.000000,,2013-01-14 14:42:00,
2013-01-14 05:52:00,40.0,33.0,-100.00,ESE,122,15.0,40.0,75,0.11,,,0.85,0.000000,,2013-01-14 14:52:00,
2013-01-14 06:23:00,40.0,33.0,-100.00,South,173,20.0,40.0,75,0.10,,,0.95,0.000000,,2013-01-14 15:23:00,
2013-01-14 06:33:00,40.0,33.0,-100.00,South,173,20.0,40.0,75,0.10,,,0.95,0.000000,,2013-01-14 15:33:00,
2013-01-14 06:43:00,40.0,33.0,-100.00,South,173,20.0,40.0,75,0.10,,,0.95,0.000000,,2013-01-14 15:43:00,
2013-01-14 06:53:00,40.0,33.0,-100.00,South,173,20.0,40.0,75,0.10,,,0.95,0.000000,,2013-01-14 15:53:00,
2013-01-14 07:23:00,39.0,32.0,-100.00,South,181,18.0,40.0,76,0.10,,,1.05,0.000000,,2013-01-14 16:23:00,
2013-01-14 07:33:00,39.0,32.0,-100.00,South,181,18.0,40.0,76,0.10,,,1.05,0.000000,,2013-01-14 16:33:00,
2013-01-14 07:43:00,39.0,32.0,-100.00,South,181,18.0,40.0,76,0.10,,,1.05,0.000000,,2013-01-14 16:43:00,
2013-01-14 07:52:00,39.0,32.0,-100.00,South,181,18.0,40.0,76,0.10,,,1.05,0.000000,,2013-01-14 16:52:00,
2013-01-14 08:23:00,41.0,31.0,-100.00,SSE,166,20.0,43.0,66,0.02,,,1.07,0.000000,,2013-01-14 17:23:00,
2013-01-14 08:33:00,41.0,31.0,-100.00,SSE,166,20.0,43.0,66,0.02,,,1.07,0.000000,,2013-01-14 17:33:00,
2013-01-14 08:43:00,41.0,31.0,-100.00,SSE,166,20.0,43.0,66,0.02,,,1.07,0.000000,,2013-01-14 17:43:00,
2013-01-14 08:53:00,41.0,31.0,-100.00,SSE,166,20.0,43.0,66,0.02,,,1.07,0.000000,,2013-01-14 17:53:00,
2013-01-14 09:22:00,40.0,30.0,-100.00,SSE,147,22.0,43.0,67,0.00,,,1.07,0.000000,,2013-01-14 18:22:00,
2013-01-14 09:33:00,40.0,30.0,-100.00,SSE,147,22.0,43.0,67,0.00,,,1.07,0.000000,,2013-01-14 18:33:00,
2013-01-14 09:42:00,40.0,30.0,-100.00,SSE,147,22.0,43.0,67,0.00,,,1.07,0.000000,,2013-01-14 18:42:00,
2013-01-14 09:52:00,40.0,30.0,-100.00,SSE,147,22.0,43.0,67,0.00,,,1.07,0.000000,,2013-01-14 18:52:00,
2013-01-14 10:22:00,42.0,29.0,-100.00,SE,139,20.0,41.0,60,0.00,,,1.07,0.000000,,2013-01-14 19:22:00,
2013-01-14 10:33:00,42.0,29.0,-100.00,SE,139,20.0,41.0,60,0.00,,,1.07,0.000000,,2013-01-14 19:33:00,
2013-01-14 10:42:00,42.0,29.0,-100.00,SE,139,20.0,41.0,60,0.00,,,1.07,0.000000,,2013-01-14 19:42:00,
2013-01-14 10:52:00,42.0,29.0,-100.00,SE,139,20.0,41.0,60,0.00,,,1.07,0.000000,,2013-01-14 19:52:00,
2013-01-14 11:22:00,44.0,22.0,-100.00,SSE,153,24.0,42.0,42,0.00,,,1.07,5.000000,,2013-01-14 20:22:00,
2013-01-14 11:33:00,44.0,22.0,-100.00,SSE,153,24.0,42.0,42,0.00,,,1.07,5.000000,,2013-01-14 20:33:00,
2013-01-14 11:42:00,44.0,22.0,-100.00,SSE,153,24.0,42.0,42,0.00,,,1.07,5.000000,,2013-01-14 20:42:00,
2013-01-14 11:52:00,44.0,22.0,-100.00,SSE,153,24.0,42.0,42,0.00,,,1.07,5.000000,,2013-01-14 20:52:00,
2013-01-14 12:22:00,43.0,26.0,-100.00,SSE,158,20.0,38.0,51,0.00,,,1.06,19.000000,,2013-01-14 21:22:00,
2013-01-14 12:33:00,43.0,26.0,-100.00,SSE,158,20.0,38.0,51,0.00,,,1.06,19.000000,,2013-01-14 21:33:00,
2013-01-14 12:42:00,43.0,26.0,-100.00,SSE,158,20.0,38.0,51,0.00,,,1.06,19.000000,,2013-01-14 21:42:00,
2013-01-14 12:53:00,43.0,26.0,-100.00,SSE,158,20.0,38.0,51,0.00,,,1.06,19.000000,,2013-01-14 21:53:00,
2013-01-14 13:23:00,42.0,25.0,-100.00,SSE,147,13.0,30.0,50,0.00,,,1.05,32.000000,,2013-01-14 22:23:00,
2013-01-14 13:32:00,42.0,25.0,-100.00,SSE,147,13.0,30.0,50,0.00,,,1.05,32.000000,,2013-01-14 22:32:00,
2013-01-14 13:42:00,42.0,25.0,-100.00,SSE,147,13.0,30.0,50,0.00,,,1.05,32.000000,,2013-01-14 22:42:00,
2013-01-14 13:52:00,42.0,25.0,-100.00,SSE,147,13.0,30.0,50,0.00,,,1.05,32.000000,,2013-01-14 22:52:00,
2013-01-14 14:23:00,42.0,27.0,-100.00,SSE,163,14.0,26.0,54,0.00,,,0.97,39.000000,,2013-01-14 23:23:00,
2013-01-14 14:33:00,42.0,27.0,-100.00,SSE,163,14.0,26.0,54,0.00,,,0.97,39.000000,,2013-01-14 23:33:00,
2013-01-14 14:42:00,42.0,27.0,-100.00,SSE,163,14.0,26.0,54,0.00,,,0.97,39.000000,,2013-01-14 23:42:00,
2013-01-14 14:52:00,42.0,27.0,-100.00,SSE,163,14.0,26.0,54,0.00,,,0.97,39.000000,,2013-01-14 23:52:00,
2013-01-14 15:22:00,42.0,27.0,-100.00,South,190,10.0,23.0,54,0.00,,,0.91,27.000000,,2013-01-15 00:22:00,
2013-01-14 15:32:00,42.0,27.0,-100.00,South,190,10.0,23.0,54,0.00,,,0.91,27.000000,,2013-01-15 00:32:00,
2013-01-14 15:43:00,42.0,27.0,-100.00,South,190,10.0,23.0,54,0.00,,,0.91,27.000000,,2013-01-15 00:43:00,
2013-01-14 15:52:00,42.0,27.0,-100.00,South,190,10.0,23.0,54,0.00,,,0.91,27.000000,,2013-01-15 00:52:00,
2013-01-14 16:22:00,39.0,30.0,-100.00,SSE,153,10.0,19.0,70,0.00,,,0.87,12.000000,,2013-01-15 01:22:00,
2013-01-14 16:32:00,39.0,30.0,-100.00,SSE,153,10.0,19.0,70,0.00,,,0.87,12.000000,,2013-01-15 01:32:00,
2013-01-14 16:42:00,39.0,30.0,-100.00,SSE,153,10.0,19.0,70,0.00,,,0.87,12.000000,,2013-01-15 01:42:00,
2013-01-14 16:52:00,39.0,30.0,-100.00,SSE,153,10.0,19.0,70,0.00,,,0.87,12.000000,,2013-01-15 01:52:00,
2013-01-14 17:22:00,38.0,30.0,-100.00,South,187,14.0,24.0,73,0.01,,,0.83,4.000000,,2013-01-15 02:22:00,
2013-01-14 17:32:00,38.0,30.0,-100.00,South,187,14.0,24.0,73,0.01,,,0.83,4.000000,,2013-01-15 02:32:00,
2013-01-14 17:42:00,38.0,30.0,-100.00,South,187,14.0,24.0,73,0.01,,,0.83,4.000000,,2013-01-15 02:42:00,
2013-01-14 17:52:00,38.0,30.0,-100.00,South,187,14.0,24.0,73,0.01,,,0.83,4.000000,,2013-01-15 02:52:00,
2013-01-14 18:22:00,40.0,28.0,-100.00,South,175,13.0,24.0,63,0.00,,,0.77,0.000000,,2013-01-15 03:22:00,
2013-01-14 18:33:00,40.0,28.0,-100.00,South,175,13.0,24.0,63,0.00,,,0.77,0.000000,,2013-01-15 03:33:00,
2013-01-14 18:42:00,40.0,28.0,-100.00,South,175,13.0,24.0,63,0.00,,,0.77,0.000000,,2013-01-15 03:42:00,
2013-01-14 18:52:00,40.0,28.0,-100.00,South,175,13.0,24.0,63,0.00,,,0.77,0.000000,,2013-01-15 03:52:00,
2013-01-14 19:22:00,37.0,24.0,-100.00,SSW,202,15.0,25.0,59,0.00,,,0.69,0.000000,,2013-01-15 04:22:00,
2013-01-14 19:32:00,37.0,24.0,-100.00,SSW,202,15.0,25.0,59,0.00,,,0.69,0.000000,,2013-01-15 04:32:00,
2013-01-14 19:42:00,37.0,24.0,-100.00,SSW,202,15.0,25.0,59,0.00,,,0.69,0.000000,,2013-01-15 04:42:00,
2013-01-14 19:52:00,37.0,24.0,-100.00,SSW,202,15.0,25.0,59,0.00,,,0.69,0.000000,,2013-01-15 04:52:00,
2013-01-14 20:22:00,37.0,21.0,-100.00,SSW,207,14.0,25.0,53,0.00,,,0.65,0.000000,,2013-01-15 05:22:00,
2013-01-14 20:33:00,37.0,21.0,-100.00,SSW,207,14.0,25.0,53,0.00,,,0.65,0.000000,,2013-01-15 05:33:00,
2013-01-14 20:42:00,37.0,21.0,-100.00,SSW,207,14.0,25.0,53,0.00,,,0.65,0.000000,,2013-01-15 05:42:00,
2013-01-14 20:52:00,37.0,21.0,-100.00,SSW,207,14.0,25.0,53,0.00,,,0.65,0.000000,,2013-01-15 05:52:00,
2013-01-14 21:22:00,36.0,21.0,-100.00,SSW,202,14.0,30.0,53,0.00,,,0.58,0.000000,,2013-01-15 06:22:00,
2013-01-14 21:32:00,36.0,21.0,-100.00,SSW,202,14.0,30.0,53,0.00,,,0.58,0.000000,,2013-01-15 06:32:00,
2013-01-14 21:42:00,36.0,21.0,-100.00,SSW,202,14.0,30.0,53,0.00,,,0.58,0.000000,,2013-01-15 06:42:00,
2013-01-14 21:52:00,36.0,21.0,-100.00,SSW,202,14.0,30.0,53,0.00,,,0.58,0.000000,,2013-01-15 06:52:00,
2013-01-14 22:22:00,33.0,19.0,-100.00,SSW,199,14.0,21.0,57,0.00,,,0.56,0.000000,,2013-01-15 07:22:00,
2013-01-14 22:32:00,33.0,19.0,-100.00,SSW,199,14.0,21.0,57,0.00,,,0.56,0.000000,,2013-01-15 07:32:00,
2013-01-14 22:42:00,33.0,19.0,-100.00,SSW,199,14.0,21.0,57,0.00,,,0.56,0.000000,,2013-01-15 07:42:00,
2013-01-14 22:52:00,33.0,19.0,-100.00,SSW,199,14.0,21.0,57,0.00,,,0.56,0.000000,,2013-01-15 07:52:00,
2013-01-14 23:22:00,34.0,18.0,-100.00,SSW,192,13.0,21.0,52,0.00,,,0.55,0.000000,,2013-01-15 08:22:00,
2013-01-14 23:32:00,34.0,18.0,-100.00,SSW,192,13.0,21.0,52,0.00,,,0.55,0.000000,,2013-01-15 08:32:00,
2013-01-14 23:42:00,34.0,18.0,-100.00,SSW,192,13.0,21.0,52,0.00,,,0.55,0.000000,,2013-01-15 08:42:00,
2013-01-14 23:52:00,34.0,18.0,-100.00,SSW,192,13.0,21.0,52,0.00,,,0.55,0.000000,,2013-01-15 08:52:00,